Location: Carter Cabin
(41.0271°N, 122.9339°W)
Time: 14:15:49
(UTC+00:00)

YAOGAN 11 - Pass Details

Date: 13 April 2024
Orbit: 606 x 659 km, 98.4° (Epoch: 22 May)

Event Time Altitude Azimuth Distance (km) Brightness Sun altitude
Rises 12:40:34 0° 161° (SSE) 2,936 7.5 -10.5°
Reaches altitude 10° 12:42:45 10° 160° (SSE) 2,039 6.7 -10.2°
Maximum altitude 12:47:11 76° 76° (ENE) 676 4.4 -9.4°
Drops below altitude 10° 12:51:43 10° 350° (N) 2,078 6.9 -8.6°
Sets 12:53:58 0° 349° (N) 2,998 7.7 -8.2°
